Date,TemperatureHighF,TemperatureAvgF,TemperatureLowF,DewpointHighF,DewpointAvgF,DewpointLowF,HumidityHigh,HumidityAvg,HumidityLow,PressureMaxIn,PressureMinIn,WindSpeedMaxMPH,WindSpeedAvgMPH,GustSpeedMaxMPH,PrecipitationSumIn
2012-3-21,55,43,33,18,14,12,51,34,18,0.00,40.00,16,9,27,0.00
2012-3-22,62,45,35,19,13,-100,48,31,12,0.00,40.00,20,3,36,0.00
2012-3-23,65,45,22,18,12,4,66,32,9,0.00,40.00,13,8,22,0.00
2012-3-24,66,45,25,17,13,6,67,33,10,0.00,40.00,12,7,25,0.00
2012-3-25,64,48,26,20,14,10,62,31,12,0.00,40.00,16,8,25,0.00
2012-3-26,61,48,31,22,11,-4,59,28,7,0.00,40.00,24,10,44,0.00
2012-3-27,62,46,28,14,10,4,48,25,10,0.00,40.00,18,8,28,0.00
2012-3-28,64,43,22,17,9,-1,66,32,7,0.00,40.00,17,8,27,0.00
2012-3-29,61,44,26,12,8,0,49,27,9,0.00,40.00,18,8,31,0.00
2012-3-30,64,50,28,19,15,13,56,26,14,0.00,40.00,15,8,31,0.00
2012-3-31,68,53,30,22,19,13,64,29,13,0.00,40.00,17,8,29,0.00
2012-4-1,66,54,31,16,8,-5,47,19,7,0.00,40.00,19,13,32,0.00
2012-4-2,45,35,24,26,20,5,74,54,28,0.00,40.00,25,16,45,0.00
2012-4-3,41,32,27,25,22,19,93,69,45,0.00,40.00,24,16,43,0.03
2012-4-4,60,42,29,30,22,11,82,51,15,0.00,40.00,16,8,25,0.01
2012-4-5,61,46,24,26,16,9,81,38,14,0.00,40.00,16,9,27,0.00
2012-4-6,59,48,27,28,5,-10,83,24,6,0.00,40.00,19,12,41,0.00
2012-4-7,58,39,24,10,-5,-22,37,19,3,0.00,40.00,12,7,23,0.00
2012-4-8,62,44,18,14,7,-1,63,29,8,0.00,40.00,12,7,21,0.00
2012-4-9,66,47,26,15,10,0,56,28,7,0.00,40.00,18,8,33,0.00
2012-4-10,66,48,29,27,22,13,72,39,18,0.00,40.00,15,9,31,0.00
2012-4-11,64,47,28,39,31,20,78,57,28,0.00,40.00,28,7,41,0.05
2012-4-12,52,41,29,32,22,11,92,50,20,0.00,40.00,20,10,30,0.04
2012-4-13,47,37,25,25,12,9,83,38,21,0.00,40.00,17,10,37,0.00
2012-4-14,49,36,22,20,12,-100,65,42,21,0.00,40.00,17,9,33,0.00
2012-4-15,45,31,21,20,18,9,91,61,32,0.00,40.00,24,8,33,0.00
2012-4-16,47,35,23,18,14,10,74,47,24,0.00,40.00,17,9,29,0.00
2012-4-17,58,42,19,21,15,9,69,37,18,0.00,40.00,14,8,24,0.00
2012-4-18,62,49,23,20,17,13,72,31,16,0.00,40.00,17,8,28,0.00
2012-4-19,56,46,39,29,25,19,57,45,26,0.00,40.00,20,13,37,0.00
2012-4-20,63,45,22,23,21,16,78,44,19,0.00,40.00,15,7,25,0.00
2012-4-21,70,54,40,23,14,-100,46,26,7,0.00,40.00,13,10,24,0.00
2012-4-22,67,53,38,29,21,16,53,32,14,0.00,40.00,13,8,20,0.00
2012-4-23,73,54,33,31,24,14,73,38,11,0.00,40.00,9,7,29,0.00
2012-4-24,72,57,33,27,19,12,64,28,11,0.00,40.00,15,9,30,0.00
2012-4-25,71,57,36,31,17,10,42,23,11,0.00,40.00,18,11,32,0.00
2012-4-26,67,54,37,43,31,23,88,47,19,0.00,40.00,22,10,45,0.08
2012-4-27,54,45,32,37,26,11,97,52,24,0.00,40.00,22,11,36,0.33
2012-4-28,57,44,31,24,13,-100,51,32,19,0.00,40.00,17,8,28,0.03
2012-4-29,60,45,24,20,16,9,65,35,15,0.00,40.00,14,7,32,0.00
2012-4-30,64,48,25,14,9,3,57,23,10,0.00,40.00,18,9,30,0.00
2012-5-1,65,55,30,23,18,11,48,24,14,0.00,40.00,17,8,27,0.00
2012-5-2,67,55,28,26,22,15,71,31,14,0.00,40.00,18,10,29,0.00
2012-5-3,70,57,29,22,20,15,67,27,12,0.00,40.00,17,10,29,0.00
2012-5-4,75,60,29,21,14,7,59,20,7,0.00,40.00,18,11,33,0.00
2012-5-5,74,59,29,14,8,-100,46,16,7,0.00,40.00,18,10,33,0.00
2012-5-6,61,49,39,33,25,8,57,41,20,0.00,40.00,21,12,33,0.00
2012-5-7,45,34,31,37,31,28,96,88,57,0.00,40.00,19,14,30,0.23
2012-5-8,55,40,30,35,29,24,95,71,30,0.00,40.00,17,6,24,0.06
2012-5-9,66,47,26,34,27,20,90,54,17,0.00,40.00,9,6,21,0.03
2012-5-10,68,56,29,30,22,12,79,31,12,0.00,40.00,14,7,30,0.00
2012-5-11,58,45,35,39,31,24,91,62,37,0.00,40.00,21,14,33,0.09
2012-5-12,59,44,35,40,34,-100,93,72,36,0.00,40.00,12,7,20,0.06
2012-5-13,57,43,32,39,34,30,95,73,39,0.00,40.00,16,10,27,0.02
2012-5-14,67,49,32,31,21,11,88,44,12,0.00,40.00,13,9,21,0.01
2012-5-15,71,52,31,27,20,13,68,34,11,0.00,40.00,10,7,19,0.00
2012-5-16,68,52,31,27,24,20,70,37,17,0.00,40.00,18,9,36,0.00
2012-5-17,70,53,33,30,25,17,75,38,14,0.00,40.00,17,8,41,0.00
2012-5-18,72,52,32,27,20,7,67,34,8,0.00,40.00,16,9,28,0.00
2012-5-19,64,52,35,34,23,-100,70,38,15,0.00,40.00,15,9,30,0.00
2012-5-20,65,52,35,36,30,24,83,49,22,0.00,40.00,13,9,24,0.00
2012-5-21,76,58,36,36,29,18,79,41,12,0.00,40.00,14,8,24,0.00
2012-5-22,78,59,35,36,22,9,66,31,8,0.00,40.00,18,10,33,0.00
2012-5-23,73,62,37,26,18,13,40,20,12,0.00,40.00,20,10,40,0.00
2012-5-24,64,52,37,27,14,-1,59,28,7,0.00,40.00,17,12,32,0.00
2012-5-25,75,59,33,29,21,7,79,30,11,0.00,40.00,20,12,40,0.00
2012-5-26,74,62,34,17,13,4,43,16,8,0.00,40.00,24,16,42,0.00
2012-5-27,58,45,22,10,1,-5,38,17,8,0.00,40.00,20,11,43,0.00
2012-5-28,66,48,28,12,4,-100,40,20,9,0.00,40.00,16,-30,30,0.00
2012-5-29,73,54,34,17,12,9,39,22,9,0.00,40.00,11,8,23,0.00
2012-5-30,74,58,35,18,10,2,30,16,9,0.00,40.00,13,8,29,0.00
2012-5-31,77,59,41,34,26,16,67,32,13,0.00,40.00,16,9,31,0.00
2012-6-1,79,61,36,32,27,21,68,33,12,0.00,40.00,19,10,33,0.00
2012-6-2,73,58,47,42,30,-100,60,38,16,0.00,40.00,16,9,41,0.03
2012-6-3,76,59,41,33,29,25,59,35,15,0.00,40.00,13,7,26,0.01
2012-6-4,78,60,44,44,33,28,72,41,17,0.00,40.00,20,10,32,0.00
2012-6-5,75,58,39,43,34,21,91,49,17,0.00,40.00,17,9,29,0.00
2012-6-6,79,59,36,34,21,10,70,30,7,0.00,40.00,14,9,27,0.00
2012-6-7,81,61,38,33,16,4,52,23,5,0.00,40.00,15,10,26,0.00
2012-6-8,82,64,35,25,16,9,45,18,7,0.00,40.00,16,10,28,0.00
2012-6-9,81,61,35,18,14,-100,46,20,8,0.00,40.00,21,9,34,0.00
2012-6-10,70,58,41,19,12,-2,35,18,9,0.00,40.00,29,14,51,0.00
2012-6-11,73,57,35,20,6,-9,26,15,5,0.00,40.00,15,9,35,0.00
2012-6-12,76,59,36,26,16,10,45,23,8,0.00,40.00,16,10,32,0.00
2012-6-13,80,62,36,20,12,3,38,17,5,0.00,40.00,14,8,27,0.00
2012-6-14,81,63,36,22,11,3,37,16,5,0.00,40.00,16,8,33,0.00
2012-6-15,78,63,49,40,23,11,50,26,8,0.00,40.00,16,10,33,0.00
2012-6-16,77,61,46,39,25,-100,55,28,11,0.00,40.00,18,9,34,0.04
2012-6-17,81,62,36,40,27,16,82,37,9,0.00,40.00,23,11,35,0.02
2012-6-18,85,68,46,22,16,5,36,17,6,0.00,40.00,20,10,35,0.00
2012-6-19,85,68,43,12,9,5,28,12,5,0.00,40.00,19,8,34,0.00
2012-6-20,81,67,45,37,16,2,47,18,5,0.00,40.00,17,10,32,0.00
2012-6-21,84,66,49,41,35,25,63,36,14,0.00,40.00,15,10,26,0.00
2012-6-22,89,65,47,48,25,-100,78,34,4,0.00,40.00,17,8,30,0.00
2012-6-23,85,66,44,32,25,20,44,24,11,0.00,40.00,17,8,44,0.00
2012-6-24,90,69,43,35,26,5,53,25,4,0.00,40.00,11,7,22,0.00
2012-6-25,88,68,42,29,21,8,56,23,5,0.00,40.00,14,8,25,0.00
2012-6-26,87,65,42,37,29,22,48,28,13,0.00,40.00,18,8,41,0.00
2012-6-27,80,60,48,50,41,34,85,53,22,0.00,40.00,24,8,43,0.09
2012-6-28,77,61,44,47,42,36,91,56,27,0.00,40.00,14,6,27,0.02
2012-6-29,83,64,42,45,39,29,87,46,16,0.00,40.00,12,7,27,0.00
2012-6-30,86,70,46,35,29,22,61,26,11,0.00,40.00,16,8,28,0.00
2012-7-1,86,71,57,38,31,24,41,25,11,0.00,40.00,12,8,26,0.00
2012-7-2,85,67,46,39,36,31,67,34,16,0.00,40.00,12,6,23,0.00
2012-7-3,82,66,51,41,39,37,62,39,20,0.00,40.00,15,8,26,0.00
2012-7-4,85,61,45,52,43,38,78,57,19,0.00,40.00,15,9,26,0.03
2012-7-5,82,64,46,48,45,37,90,53,20,0.00,40.00,22,8,35,0.01
2012-7-6,79,64,43,52,45,40,93,56,25,0.00,40.00,17,7,28,0.20
2012-7-7,73,59,53,54,51,48,94,78,46,0.00,40.00,16,9,27,1.07
2012-7-8,70,60,49,51,48,44,95,67,39,0.00,40.00,14,5,21,0.03
2012-7-9,75,60,51,51,48,43,89,67,32,0.00,40.00,17,10,29,0.05
2012-7-10,78,61,48,49,44,37,88,60,23,0.00,40.00,17,9,32,0.05
2012-7-11,77,60,44,50,45,39,91,64,26,0.00,40.00,9,6,35,0.19
2012-7-12,78,60,46,49,44,36,89,62,22,0.00,40.00,12,7,18,0.11
2012-7-13,83,64,51,48,42,34,73,49,17,0.00,40.00,17,8,25,0.02
2012-7-14,78,61,47,52,45,41,90,61,30,0.00,40.00,17,8,30,0.10
2012-7-15,77,60,43,50,46,41,93,63,28,0.00,40.00,13,7,23,0.02
2012-7-16,75,65,44,48,43,41,89,49,29,0.00,40.00,15,8,25,0.02
2012-7-17,79,63,43,49,43,35,92,55,21,0.00,40.00,14,6,23,0.02
2012-7-18,78,64,46,45,40,34,80,47,21,0.00,40.00,13,8,22,0.02
2012-7-19,85,66,49,43,37,31,72,42,15,0.00,40.00,11,7,26,0.00
2012-7-20,87,71,48,47,40,32,77,36,17,0.00,40.00,11,7,23,0.00
2012-7-21,86,68,47,50,42,32,75,43,15,0.00,40.00,13,7,21,0.04
2012-7-22,84,68,46,48,38,24,87,42,12,0.00,40.00,12,8,25,0.02
2012-7-23,86,70,46,51,41,29,87,41,13,0.00,40.00,13,8,26,0.02
2012-7-24,80,68,43,43,40,32,86,39,18,0.00,40.00,13,7,24,0.00
2012-7-25,78,66,50,51,42,36,79,46,23,0.00,40.00,11,7,28,0.01
2012-7-26,82,66,49,49,42,34,87,48,20,0.00,40.00,10,7,21,0.01
2012-7-27,76,60,48,53,46,40,84,63,27,0.00,40.00,12,6,22,0.20
2012-7-28,75,63,47,50,47,44,91,59,34,0.00,40.00,16,8,26,0.20
2012-7-29,84,68,51,52,45,34,87,49,18,0.00,40.00,15,8,25,0.00
2012-7-30,81,66,50,51,46,36,84,52,20,0.00,40.00,16,9,28,0.00
2012-7-31,76,63,53,55,49,42,86,62,37,0.00,40.00,16,10,30,0.18
2012-8-1,73,59,45,48,46,41,90,66,34,0.00,40.00,14,7,24,0.17
2012-8-2,78,66,52,50,45,42,76,49,28,0.00,40.00,14,8,29,0.02
2012-8-3,79,62,40,45,36,24,91,49,13,0.00,40.00,12,6,22,0.00
2012-8-4,84,64,40,41,34,9,83,40,6,0.00,40.00,17,7,25,0.00
2012-8-5,80,64,47,43,39,31,76,43,17,0.00,40.00,14,8,33,0.00
2012-8-6,82,64,47,46,42,36,82,49,19,0.00,40.00,13,6,23,0.01
2012-8-7,82,66,49,46,41,32,69,43,19,0.00,40.00,13,8,27,0.01
2012-8-8,83,66,47,43,33,23,74,36,12,0.00,40.00,11,7,19,0.00
2012-8-9,82,61,45,51,37,30,74,45,15,0.00,40.00,11,7,36,0.03
2012-8-10,80,61,44,52,44,38,89,60,24,0.00,40.00,15,7,27,0.29
2012-8-11,81,62,44,49,40,-100,94,55,17,0.00,40.00,17,8,42,0.20
2012-8-12,81,65,49,45,38,27,69,42,14,0.00,40.00,14,8,31,0.00
2012-8-13,66,54,42,51,45,38,91,73,42,0.00,40.00,11,6,22,0.10
2012-8-14,73,58,41,49,44,39,95,64,31,0.00,40.00,9,5,17,0.05
2012-8-15,77,58,40,43,37,28,86,51,19,0.00,40.00,15,7,26,0.01
2012-8-16,77,63,47,49,40,34,81,48,22,0.00,40.00,17,9,25,0.01
2012-8-17,77,58,41,49,43,38,90,61,26,0.00,40.00,12,6,23,0.05
2012-8-18,78,59,40,44,40,37,88,56,26,0.00,40.00,12,7,19,0.02
2012-8-19,80,62,42,41,35,30,77,41,18,0.00,40.00,14,8,24,0.00
2012-8-20,65,55,43,49,41,33,89,60,41,0.00,40.00,15,7,24,0.00
2012-8-21,78,58,40,47,40,34,91,57,23,0.00,40.00,9,6,17,0.00
2012-8-22,73,62,46,52,44,35,89,55,28,0.00,40.00,12,6,21,0.15
2012-8-23,67,57,49,53,51,47,94,81,58,0.00,40.00,13,6,18,0.36
2012-8-24,64,56,51,52,47,41,95,74,45,0.00,40.00,14,6,25,0.31
2012-8-25,77,63,47,42,37,30,71,43,18,0.00,40.00,12,8,23,0.01
2012-8-26,79,64,40,43,38,30,87,45,17,0.00,40.00,10,6,18,0.00
2012-8-27,83,67,43,43,38,32,81,40,16,0.00,40.00,13,7,22,0.00
2012-8-28,78,65,43,44,40,35,80,42,23,0.00,40.00,15,8,25,0.00
2012-8-29,81,64,47,46,40,34,71,44,20,0.00,40.00,18,8,28,0.00
2012-8-30,83,66,41,42,38,31,84,39,16,0.00,40.00,15,8,27,0.00
2012-8-31,81,64,45,40,35,27,66,38,16,0.00,40.00,13,8,23,0.00
2012-9-1,78,63,41,44,34,29,63,36,20,0.00,40.00,18,8,31,0.00
2012-9-2,78,61,50,51,41,34,81,52,20,0.00,40.00,14,6,25,0.07
2012-9-3,77,62,50,48,40,28,79,49,17,0.00,40.00,17,7,31,0.02
2012-9-4,77,62,45,33,28,21,52,31,14,0.00,40.00,17,10,38,0.00
2012-9-5,78,64,51,25,17,5,31,18,7,0.00,40.00,17,10,37,0.00
2012-9-6,78,61,44,27,17,11,33,20,9,0.00,40.00,12,7,29,0.00
2012-9-7,74,62,51,41,34,25,56,36,19,0.00,40.00,21,10,36,0.00
2012-9-8,70,56,43,39,36,33,73,50,26,0.00,40.00,14,9,21,0.00
2012-9-9,75,56,36,41,27,3,89,45,7,0.00,40.00,11,7,19,0.00
2012-9-10,74,61,36,41,32,14,75,37,23,0.00,40.00,11,8,18,0.00
2012-9-11,69,57,44,48,40,31,89,55,31,0.00,40.00,13,7,28,0.10
2012-9-12,51,48,45,49,44,38,97,85,66,0.00,40.00,17,10,28,1.11
2012-9-13,64,51,42,39,36,29,88,60,28,0.00,40.00,13,10,22,0.01
2012-9-14,68,51,38,37,30,20,84,51,16,0.00,40.00,12,8,21,0.00
2012-9-15,75,53,30,32,26,10,82,42,8,0.00,40.00,10,6,17,0.00
2012-9-16,74,57,37,27,20,8,62,29,10,0.00,40.00,13,8,24,0.00
2012-9-17,60,47,34,38,27,17,89,49,25,0.00,40.00,25,8,36,0.00
2012-9-18,68,47,29,36,30,25,92,59,23,0.00,40.00,9,6,16,0.01
2012-9-19,73,52,35,25,22,17,59,35,12,0.00,40.00,9,6,15,0.01
2012-9-20,72,56,42,25,19,7,44,27,8,0.00,40.00,12,8,19,0.00
2012-9-21,73,56,39,26,20,17,48,28,12,0.00,40.00,10,8,19,0.00
2012-9-22,73,56,41,26,20,-100,51,28,12,0.00,40.00,12,9,24,0.00
2012-9-23,70,56,35,29,24,20,57,32,15,0.00,40.00,13,7,24,0.00
2012-9-24,62,51,41,41,34,28,88,56,32,0.00,40.00,19,7,35,0.06
2012-9-25,55,43,34,42,38,31,94,84,54,0.00,40.00,7,4,14,0.03
2012-9-26,58,41,29,40,34,27,93,78,37,0.00,40.00,13,6,22,0.03
2012-9-27,61,46,34,38,33,31,90,66,34,0.00,40.00,13,7,27,0.01
2012-9-28,65,50,37,37,32,27,75,54,25,0.00,40.00,14,8,21,0.00
2012-9-29,66,49,36,43,36,28,87,63,24,0.00,40.00,13,7,22,0.00
2012-9-30,66,50,36,33,27,20,77,47,17,0.00,40.00,16,9,27,0.00
2012-10-1,68,50,37,32,28,25,65,44,22,0.00,40.00,15,8,20,0.00
2012-10-2,70,51,28,31,26,15,80,44,18,0.00,40.00,11,7,21,0.00
2012-10-3,69,51,33,22,17,12,56,29,11,0.00,40.00,19,9,32,0.00
2012-10-4,66,50,34,29,21,13,61,34,16,0.00,40.00,18,10,36,0.00
2012-10-5,63,51,32,34,18,8,66,31,14,0.00,40.00,18,10,41,0.00
2012-10-6,55,40,27,23,11,-12,76,42,6,0.00,40.00,20,14,36,0.00
2012-10-7,55,37,18,20,10,-5,83,44,9,0.00,40.00,17,9,29,0.00
2012-10-8,60,40,21,3,-4,-13,35,19,5,0.00,40.00,13,7,28,0.00
2012-10-9,64,44,24,12,7,-1,43,24,11,0.00,40.00,18,8,29,0.00
2012-10-10,65,48,31,20,17,12,48,31,17,0.00,40.00,10,6,31,0.00
2012-10-11,68,48,28,31,22,18,67,41,16,0.00,40.00,13,7,24,0.00
2012-10-12,51,42,34,42,38,30,95,85,48,0.00,40.00,13,7,23,0.48
2012-10-13,51,36,29,34,29,25,89,75,49,0.00,40.00,10,5,19,0.13
2012-10-14,56,40,26,34,30,23,90,71,41,0.00,40.00,8,5,16,0.01
2012-10-15,63,43,25,31,24,16,88,54,16,0.00,40.00,10,6,22,0.01
2012-10-16,64,48,30,27,22,17,67,38,16,0.00,40.00,17,7,28,0.01
2012-10-17,55,47,41,36,6,-11,77,23,7,0.00,40.00,21,14,42,0.01
2012-10-18,61,45,30,12,7,-2,37,22,13,0.00,40.00,14,8,25,0.01
2012-10-19,64,43,21,18,11,1,69,34,9,0.00,40.00,14,8,26,0.00
2012-10-20,64,44,27,14,12,8,52,29,11,0.00,40.00,12,6,21,0.00
2012-10-21,62,42,24,21,15,9,65,37,19,0.00,40.00,13,7,22,0.00
2012-10-22,61,42,22,26,20,16,81,48,19,0.00,40.00,15,8,29,0.00
2012-10-23,65,48,34,25,20,14,62,36,14,0.00,40.00,20,11,33,0.00
2012-10-24,62,42,23,21,16,10,72,40,16,0.00,40.00,23,11,45,0.00
2012-10-25,40,32,26,17,8,0,67,39,19,0.00,40.00,19,13,39,0.00
2012-10-26,40,24,10,15,-2,-13,74,36,12,0.00,40.00,18,7,30,0.00
2012-10-27,48,30,12,14,4,-11,75,38,17,0.00,40.00,20,9,36,0.00
2012-10-28,56,36,15,19,11,1,58,37,22,0.00,40.00,14,6,27,0.00
2012-10-29,59,39,22,23,18,14,75,47,21,0.00,40.00,9,6,21,0.00
2012-10-30,60,40,23,20,15,9,70,40,14,0.00,40.00,10,6,17,0.00
2012-10-31,61,42,30,17,13,6,52,32,13,0.00,40.00,12,8,18,0.00
2012-11-1,58,39,20,13,8,4,58,32,12,0.00,40.00,13,7,20,0.00
2012-11-2,53,40,31,8,6,4,35,25,14,0.00,40.00,9,5,15,0.00
2012-11-3,53,36,17,11,7,4,61,33,15,0.00,40.00,11,6,16,0.00
2012-11-4,50,33,20,15,10,6,56,39,20,0.00,40.00,9,-37,13,0.00
2012-11-5,56,39,19,20,18,13,76,44,24,0.00,40.00,10,6,15,0.00
2012-11-6,60,40,23,20,16,13,69,41,18,0.00,40.00,10,6,16,0.00
2012-11-7,59,38,18,16,12,9,70,40,16,0.00,40.00,10,6,17,0.00
2012-11-8,53,38,21,16,12,8,59,38,19,0.00,40.00,14,7,22,0.00
2012-11-9,53,41,34,35,24,11,94,53,30,0.00,40.00,17,13,28,0.05
2012-11-10,37,29,13,32,18,4,95,68,32,0.00,40.00,17,11,35,0.21
2012-11-11,22,16,11,11,2,-5,81,56,32,0.00,40.00,18,7,31,0.03
2012-11-12,31,14,2,6,-1,-6,72,55,26,0.00,40.00,17,6,31,0.00
2012-11-13,45,24,10,13,7,2,75,52,24,0.00,40.00,8,5,17,0.00
2012-11-14,44,26,12,13,7,-100,77,52,21,0.00,40.00,10,6,16,0.00
2012-11-15,49,32,14,11,6,2,64,38,16,0.00,40.00,8,6,16,0.00
2012-11-16,46,29,14,13,9,5,70,47,21,0.00,40.00,13,7,19,0.00
2012-11-17,49,36,17,17,15,10,73,47,26,0.00,40.00,15,8,22,0.00
2012-11-18,48,36,16,24,19,12,85,53,30,0.00,40.00,13,6,19,0.00
2012-11-19,49,35,19,21,17,11,81,52,27,0.00,40.00,9,6,17,0.00
2012-11-20,50,34,16,17,13,9,76,46,22,0.00,40.00,10,6,16,0.00
2012-11-21,49,35,14,17,12,7,78,43,20,0.00,40.00,13,8,19,0.00
2012-11-22,53,37,18,16,12,4,63,38,14,0.00,40.00,11,7,19,0.00
2012-11-23,47,32,16,12,9,4,66,41,20,0.00,40.00,11,7,17,0.00
2012-11-24,49,34,12,14,8,5,73,38,18,0.00,40.00,10,7,18,0.00
2012-11-25,48,34,14,9,6,1,63,33,17,0.00,40.00,9,7,14,0.00
2012-11-29,46,34,18,14,10,2,70,38,26,0.00,40.00,11,6,18,0.00
2012-11-30,47,33,16,19,16,10,78,52,31,0.00,40.00,11,6,18,0.00
2012-12-1,54,39,19,20,16,10,72,42,20,0.00,40.00,10,6,22,0.00
2012-12-2,47,32,15,21,14,10,82,51,26,0.00,40.00,15,8,23,0.00
2012-12-3,44,37,24,26,18,10,55,45,31,0.00,40.00,17,9,31,0.00
2012-12-4,42,30,11,12,8,3,70,41,20,0.00,40.00,9,6,16,0.00
2012-12-5,47,34,16,13,11,7,68,39,23,0.00,40.00,12,6,22,0.00
2012-12-6,41,32,27,27,18,-100,90,60,44,0.00,40.00,9,3,16,0.00
2012-12-7,41,33,27,27,18,11,91,56,34,0.00,40.00,21,8,36,0.00
2012-12-8,40,30,16,18,14,11,79,53,32,0.00,40.00,20,10,37,0.00
2012-12-9,29,16,-3,15,4,-13,70,60,37,0.00,40.00,19,11,33,0.00
2012-12-10,21,7,-6,-2,-8,-16,69,53,28,0.00,40.00,10,4,17,0.00